Wind_Speed
7 4 5 3 2 2 2 2 3 3 4 2 1 4 6 7 8 8 7 7 7 8 9 9 8 6 4 3 3 2 2 0 1 3 5 7 8 8 8 10 11 10 12
11 6 5 4 2 1 2 3 3 3 4 3 2 4 5 7 7 7 7 7 7 7 9 9 9 7 5 4 4 4 3 2 3 5 6 7 7 7 8 9 12 12 13
9 10 8 6 4 3 3 3 4 4 5 5 5 5 5 6 7 8 7 7 7 7 8 10 10 8 7 5 5 5 4 3 3 5 7 6 6 6 8 8 9 9 12
7 7 7 6 6 5 4 4 4 5 6 7 7 7 7 7 8 9 8 8 8 8 9 10 11 9 8 7 6 6 5 4 4 5 6 7 5 6 7 9 10 10 11
6 6 7 6 4 5 6 5 5 6 7 7 9 9 9 9 10 10 9 9 9 8 10 10 11 10 8 8 8 7 6 6 5 5 7 7 6 7 7 9 10 11 11
8 5 3 1 2 3 4 6 7 8 8 10 11 11 11 11 11 11 10 10 10 10 10 11 12 11 10 9 9 9 8 7 6 5 7 8 7 11 8 10 10 12 13
8 7 5 5 3 3 5 7 7 8 9 11 13 13 13 13 13 12 12 12 12 11 12 13 13 12 11 11 11 10 9 8 7 8 8 8 7 10 9 11 12 12 12
5 5 4 3 3 4 6 7 8 10 10 12 13 14 15 14 15 15 14 14 14 13 13 14 14 14 14 12 12 12 11 10 10 9 9 9 13 11 11 11 12 12 12
1 1 3 4 5 7 7 7 7 8 11 11 14 16 18 18 17 17 18 17 16 16 15 16 16 16 16 15 14 14 13 12 11 11 10 9 14 12 12 12 12 12 12
4 3 1 2 3 4 6 8 9 9 8 12 14 16 18 19 19 19 20 21 20 19 18 18 18 18 18 17 16 16 15 15 14 12 12 11 16 12 13 13 13 13 13
3 2 2 3 4 5 6 7 7 9 11 10 12 15 20 18 20 21 22 23 22 22 22 21 21 20 21 20 19 19 18 16 13 14 14 19 15 14 14 15 15 14 14
4 4 5 5 5 5 5 6 7 9 12 15 15 14 16 19 22 24 25 25 25 25 25 25 23 24 23 20 20 22 22 17 16 16 16 21 17 15 15 16 16 17 16
7 8 8 9 9 9 10 10 11 12 13 16 19 23 23 21 23 23 23 23 28 28 28 28 28 28 23 21 20 19 20 19 18 17 18 21 19 17 17 17 18 18 17
7 9 10 12 12 13 14 15 17 18 19 21 21 22 25 28 27 26 25 27 25 29 31 28 28 25 25 25 24 23 22 20 19 19 19 22 20 19 18 19 18 19 19
9 12 13 14 15 17 18 19 20 22 25 27 27 26 25 26 30 32 31 29 29 26 30 34 33 34 29 27 27 26 25 24 22 21 19 23 23 21 19 20 19 20 20
10 13 15 17 19 19 21 23 24 27 28 29 30 29 28 27 29 33 33 33 33 32 29 30 36 37 38 35 28 28 27 25 24 24 22 22 25 24 23 22 20 20 21
11 13 16 18 20 21 22 24 25 26 27 29 30 31 29 28 28 30 33 34 33 33 34 33 31 36 36 39 39 29 28 28 27 26 25 22 24 27 26 24 23 19 20
12 14 15 17 19 22 24 25 25 25 28 27 27 28 28 27 27 29 29 31 31 33 31 37 34 37 34 40 42 41 29 29 29 28 26 25 25 24 30 28 25 22 20
13 14 17 18 20 22 24 24 25 25 24 24 26 25 25 28 26 26 30 31 32 33 33 30 39 36 35 39 43 44 40 31 31 29 29 27 27 26 24 29 29 26 21
12 14 15 17 20 22 22 23 22 22 23 24 23 23 26 26 27 26 26 29 29 27 29 29 29 36 37 37 45 46 44 41 33 31 30 30 29 29 28 24 28 30 27
11 13 15 17 20 22 21 23 23 25 25 24 23 24 24 23 24 24 25 29 26 23 24 26 26 28 34 30 38 43 47 44 34 32 31 31 31 29 30 28 27 30 30
10 13 14 17 20 21 22 21 21 23 21 22 20 22 21 22 21 22 22 23 25 26 27 25 26 28 31 38 30 34 16 28 43 39 34 35 33 30 30 32 30 29 26
10 12 15 18 19 21 24 21 21 20 20 20 22 22 23 22 21 21 22 22 24 25 29 29 23 28 27 27 41 24 14 19 17 34 46 40 34 34 32 31 35 32 31
10 12 14 17 18 20 24 23 23 22 23 23 22 22 23 20 20 20 20 20 22 23 24 26 27 27 26 35 27 42 41 18 20 12 29 40 40 35 35 33 33 37 32
9 11 13 15 17 22 24 22 21 22 20 20 21 23 21 19 19 19 18 21 23 26 30 27 24 25 28 31 36 33 36 45 28 26 34 36 34 40 37 38 35 34 36
8 10 12 16 16 21 22 23 25 23 22 22 23 22 23 25 23 22 21 21 20 21 25 28 30 32 30 31 36 37 34 34 38 32 23 30 25 30 37 38 35 36 32
Wind_Direction
32 151 165 150 190 196 207 199 181 166 155 125 144 180 185 189 184 184 188 188 188 186 186 187 191 194 188 202 232 240 241 249 137 145 142 132 133 142 146 149 148 157 153
71 86 140 148 171 208 236 250 236 217 195 187 177 201 192 196 197 199 202 210 213 209 206 209 213 213 209 221 243 241 218 195 175 161 154 146 145 154 159 162 148 189 162
88 130 150 154 167 185 213 225 246 235 219 207 203 202 206 202 209 214 213 219 222 219 220 220 220 220 215 233 240 235 228 218 195 169 148 139 179 170 173 179 184 182 172
144 139 140 162 181 181 206 227 231 235 232 224 215 210 212 214 222 226 225 226 225 218 227 224 223 222 226 239 240 235 231 226 207 183 151 181 210 206 203 202 197 183 180
138 142 159 174 186 197 205 213 230 233 234 232 228 221 218 220 224 230 229 232 234 227 225 225 229 231 237 240 243 241 241 235 218 184 203 197 203 224 202 196 190 184 183
109 110 110 190 254 261 250 242 231 224 224 228 233 236 230 227 229 232 230 234 236 234 232 230 234 238 238 238 240 243 242 236 226 196 214 227 191 225 206 194 194 195 198
93 85 74 48 28 336 311 284 263 246 235 229 227 231 240 242 240 236 236 237 237 238 239 241 241 241 242 241 244 247 240 236 217 222 219 227 217 228 215 202 198 205 203
91 80 66 41 353 342 337 321 296 278 261 247 238 235 236 244 249 247 244 241 243 242 241 243 245 247 247 245 247 246 245 240 236 230 228 231 236 224 215 208 202 201 209
47 316 304 306 313 318 316 321 328 317 279 269 260 247 240 240 241 248 249 248 243 244 244 243 244 246 247 248 247 245 246 243 228 237 236 233 248 226 217 213 208 207 210
112 106 82 12 347 332 323 323 319 327 333 283 270 264 262 254 251 247 251 250 249 245 245 245 244 244 246 246 245 244 246 247 238 233 242 232 237 228 221 219 214 212 208
94 62 33 342 327 322 320 322 326 322 325 313 303 293 272 268 259 257 254 251 250 251 248 246 246 244 245 245 243 242 244 243 239 234 233 239 228 229 227 221 217 215 210
23 9 358 348 339 331 319 312 310 311 308 312 312 303 287 283 275 268 265 262 253 246 249 247 245 246 242 241 244 239 241 235 233 230 229 240 224 231 228 221 219 216 216
354 355 345 332 323 314 309 308 309 309 308 308 305 301 295 285 276 272 264 264 259 254 249 247 243 241 238 236 235 238 236 232 231 232 229 238 228 231 229 221 217 218 217
333 334 333 325 319 316 313 310 309 308 308 307 305 299 292 281 276 272 266 260 260 257 250 246 241 234 237 237 234 235 232 231 232 229 227 233 229 228 226 221 218 219 218
331 329 329 324 319 316 314 312 309 307 307 308 307 302 294 284 276 269 265 261 256 254 257 249 246 245 238 236 237 237 237 234 231 230 226 236 229 224 221 224 218 222 220
326 323 322 323 319 316 313 311 311 310 309 308 307 304 299 289 277 271 267 260 256 250 248 257 249 247 249 242 239 237 238 236 236 232 231 235 229 223 220 221 223 225 224
322 319 318 312 313 314 312 311 310 307 307 306 305 304 301 293 283 272 267 264 258 256 247 239 250 250 248 251 243 238 238 238 234 232 229 227 236 225 221 222 223 225 224
320 323 318 314 316 317 316 316 317 316 316 312 309 306 300 293 284 277 270 264 260 256 255 243 241 248 248 248 249 241 236 239 240 233 229 226 224 230 224 224 224 223 225
328 322 321 324 323 322 320 319 318 315 314 311 308 304 300 294 287 280 273 265 262 258 253 254 241 237 247 249 248 247 239 233 237 238 233 225 224 222 227 228 225 220 220
332 332 332 332 332 331 330 327 323 320 315 314 309 306 301 298 294 282 275 271 260 264 261 258 257 245 240 249 252 250 244 236 234 232 234 231 224 223 223 225 226 220 219
343 345 346 345 342 339 336 333 326 323 322 317 311 306 306 303 297 296 290 274 264 264 265 263 257 256 250 244 247 246 253 244 230 230 233 232 229 224 224 220 219 221 222
353 355 355 352 349 348 344 340 330 325 321 318 319 313 305 301 299 300 295 287 274 263 265 265 257 254 253 237 248 240 235 237 239 222 228 231 228 225 226 223 219 213 219
1 3 4 1 359 353 350 344 338 332 328 326 323 321 320 314 308 293 285 285 281 281 275 264 257 258 249 245 238 231 218 227 241 226 244 231 227 224 224 225 225 223 218
7 12 15 9 4 0 358 355 348 341 336 330 329 326 327 321 316 304 288 280 272 271 275 277 272 251 255 244 241 241 240 240 207 202 226 248 232 229 228 225 228 226 221
17 19 19 14 10 8 7 359 354 347 340 335 334 335 333 334 330 325 312 299 290 276 268 264 264 265 248 244 242 240 249 241 224 232 219 229 235 230 230 230 224 229 229
17 16 17 20 14 11 9 7 4 358 351 348 347 345 342 343 343 338 328 314 301 288 281 274 270 264 258 241 240 239 234 221 222 216 211 219 216 229 229 231 230 227 230
Height
1537 1535 1536 1537 1538 1538 1538 1538 1538 1538 1538 1537 1537 1536 1535 1535 1535 1535 1536 1536 1537 1538 1538 1539 1539 1539 1539 1539 1539 1538 1537 1537 1537 1536 1537 1537 1537 1538 1539 1539 1540 1541 1539
1537 1537 1536 1536 1537 1538 1539 1539 1539 1539 1538 1538 1537 1538 1536 1536 1536 1536 1536 1537 1537 1538 1538 1539 1539 1538 1539 1539 1539 1538 1538 1537 1537 1536 1537 1537 1538 1538 1540 1541 1541 1541 1541
1538 1535 1534 1535 1536 1536 1537 1538 1538 1539 1539 1538 1538 1538 1537 1536 1537 1537 1536 1537 1537 1537 1538 1538 1538 1538 1538 1539 1538 1538 1538 1537 1536 1537 1538 1540 1540 1539 1540 1541 1542 1542 1543
1537 1536 1535 1536 1535 1534 1535 1536 1537 1537 1538 1538 1538 1538 1538 1537 1538 1538 1537 1537 1537 1536 1538 1538 1538 1538 1538 1538 1538 1538 1538 1537 1537 1537 1539 1541 1541 1538 1539 1541 1541 1543 1543
1537 1537 1535 1535 1535 1534 1534 1534 1535 1536 1536 1537 1538 1538 1538 1537 1537 1538 1536 1537 1537 1536 1537 1537 1538 1537 1537 1537 1537 1537 1537 1537 1537 1537 1541 1540 1541 1538 1539 1540 1542 1543 1543
1538 1538 1538 1536 1536 1535 1535 1534 1533 1533 1534 1535 1536 1537 1537 1536 1535 1537 1535 1536 1536 1536 1536 1536 1537 1536 1536 1536 1536 1536 1536 1537 1537 1539 1540 1539 1539 1537 1538 1539 1541 1542 1543
1537 1537 1536 1537 1536 1535 1534 1534 1533 1532 1532 1533 1533 1535 1535 1535 1535 1534 1534 1534 1535 1534 1535 1535 1535 1534 1534 1534 1534 1534 1535 1536 1536 1538 1539 1539 1538 1536 1537 1538 1539 1542 1542
1537 1537 1536 1536 1536 1535 1534 1534 1533 1532 1532 1532 1532 1532 1532 1532 1533 1533 1533 1533 1533 1532 1533 1534 1533 1533 1533 1532 1533 1533 1533 1534 1535 1537 1537 1538 1536 1535 1535 1537 1538 1539 1541
1536 1537 1536 1536 1535 1535 1534 1533 1532 1531 1530 1530 1530 1529 1528 1529 1529 1530 1529 1530 1529 1530 1531 1531 1531 1531 1530 1531 1531 1531 1531 1532 1533 1536 1535 1535 1533 1533 1534 1535 1537 1538 1539
1537 1536 1535 1535 1534 1534 1533 1532 1531 1530 1529 1529 1528 1528 1527 1526 1526 1526 1526 1526 1527 1527 1527 1528 1528 1528 1528 1528 1528 1528 1529 1530 1530 1533 1534 1534 1531 1532 1532 1533 1535 1536 1538
1536 1536 1535 1535 1534 1534 1532 1531 1530 1529 1527 1527 1526 1524 1524 1523 1522 1521 1521 1521 1522 1522 1523 1524 1525 1525 1525 1525 1525 1525 1525 1526 1529 1530 1531 1529 1528 1529 1530 1530 1532 1534 1535
1535 1534 1534 1534 1534 1533 1531 1530 1528 1527 1525 1523 1522 1522 1521 1519 1519 1518 1517 1517 1517 1517 1518 1519 1521 1521 1521 1521 1520 1521 1520 1522 1524 1526 1527 1524 1525 1526 1527 1528 1529 1531 1532
1533 1532 1531 1531 1531 1530 1529 1528 1526 1525 1523 1522 1520 1518 1517 1516 1514 1514 1513 1512 1512 1513 1513 1514 1515 1514 1516 1517 1519 1518 1517 1518 1520 1521 1522 1520 1522 1523 1524 1525 1527 1528 1530
1532 1531 1530 1529 1529 1528 1526 1524 1523 1521 1519 1518 1516 1514 1512 1510 1509 1508 1506 1506 1506 1506 1507 1508 1508 1509 1511 1512 1513 1514 1513 1514 1515 1516 1517 1515 1518 1519 1521 1522 1523 1525 1527
1530 1529 1528 1527 1526 1524 1523 1520 1518 1516 1514 1511 1509 1507 1506 1504 1502 1500 1500 1499 1499 1501 1500 1500 1501 1501 1503 1506 1507 1508 1508 1508 1510 1512 1512 1511 1512 1515 1517 1519 1520 1521 1523
1529 1528 1526 1524 1522 1520 1518 1516 1513 1510 1507 1505 1502 1499 1498 1496 1495 1493 1492 1492 1492 1492 1493 1493 1493 1493 1494 1497 1500 1502 1502 1504 1504 1506 1507 1507 1507 1509 1512 1514 1516 1517 1519
1527 1525 1523 1522 1519 1516 1514 1511 1508 1505 1502 1499 1495 1492 1490 1488 1486 1485 1483 1482 1483 1484 1483 1484 1485 1485 1487 1488 1491 1495 1497 1498 1499 1499 1501 1504 1503 1504 1505 1509 1512 1513 1515
1525 1523 1521 1519 1516 1512 1509 1505 1501 1498 1494 1491 1487 1484 1482 1479 1477 1475 1474 1473 1474 1473 1474 1475 1476 1477 1477 1479 1481 1485 1489 1493 1494 1495 1495 1498 1501 1500 1501 1502 1505 1508 1512
1523 1521 1519 1515 1512 1508 1505 1501 1497 1493 1489 1485 1481 1478 1474 1470 1469 1466 1463 1464 1464 1463 1464 1465 1467 1468 1470 1470 1470 1474 1479 1483 1487 1490 1491 1491 1494 1497 1499 1497 1500 1503 1507
1520 1518 1515 1512 1508 1504 1500 1496 1493 1488 1484 1480 1476 1471 1467 1463 1459 1458 1455 1454 1454 1454 1455 1457 1458 1460 1462 1462 1463 1463 1467 1473 1479 1481 1484 1488 1486 1489 1493 1496 1494 1497 1501
1518 1515 1512 1509 1505 1501 1497 1492 1488 1482 1477 1474 1470 1465 1460 1458 1453 1451 1449 1447 1446 1446 1449 1451 1452 1453 1452 1456 1454 1454 1458 1463 1468 1472 1477 1480 1483 1482 1485 1490 1490 1490 1494
1516 1512 1510 1506 1502 1498 1493 1489 1485 1479 1474 1469 1465 1461 1457 1450 1447 1446 1445 1443 1441 1438 1438 1441 1445 1446 1445 1448 1447 1450 1446 1449 1454 1457 1467 1472 1475 1477 1478 1481 1484 1484 1488
1514 1510 1507 1504 1500 1496 1491 1486 1482 1478 1473 1467 1461 1455 1450 1445 1442 1441 1438 1436 1434 1432 1430 1432 1436 1438 1437 1440 1441 1442 1440 1437 1444 1442 1457 1465 1467 1468 1472 1474 1477 1478 1478
1514 1510 1506 1503 1500 1494 1488 1483 1479 1475 1468 1464 1457 1452 1446 1442 1438 1435 1431 1428 1425 1423 1423 1425 1426 1428 1431 1430 1434 1434 1433 1435 1435 1441 1447 1457 1457 1460 1463 1467 1469 1472 1473
1513 1510 1507 1503 1499 1493 1487 1483 1478 1473 1467 1461 1455 1449 1444 1438 1434 1429 1425 1422 1419 1417 1416 1417 1418 1419 1422 1425 1423 1427 1426 1429 1431 1433 1440 1443 1449 1450 1455 1459 1461 1465 1466
1513 1510 1507 1502 1499 1493 1489 1482 1476 1470 1465 1458 1452 1447 1442 1436 1430 1425 1420 1416 1412 1410 1409 1409 1410 1410 1411 1414 1416 1416 1415 1417 1419 1426 1429 1437 1438 1442 1447 1452 1453 1457 1459